Theta_e
314 317 318 318 317 317 317 317 317 317 317 318 319 319 319 319 318 318 319 318 316 316 317 317 317 316 315 315 314 315 315 315 315 315 316 314 312 310 309 307 306 305 305 304 305 305 305 306 306 306 306 307 307 308 308 308 308 308 308 308 309 309 308 309 310 311 310 310 310 311 311 312 313 314 314 315 316 317 319 319 320 320 320 320 320 320
315 318 319 318 317 317 318 318 318 318 318 318 319 319 319 319 318 318 318 318 315 316 317 316 316 315 314 315 314 315 315 315 315 315 314 311 310 309 307 306 305 304 304 305 305 304 305 305 305 305 306 306 307 308 308 308 308 307 307 307 308 308 308 309 310 311 312 312 313 314 314 314 314 314 314 313 313 313 314 316 316 317 316 317 317 317
318 318 318 317 317 317 318 318 319 319 319 319 319 319 320 319 319 318 318 317 314 315 316 315 315 315 314 314 314 314 316 316 315 313 311 310 309 308 307 306 305 304 303 304 304 304 304 304 304 305 305 305 305 306 307 307 307 307 307 307 307 307 307 308 307 309 311 311 311 311 311 312 313 313 313 311 311 310 311 311 311 312 312 312 313 313
320 318 317 317 317 317 318 318 319 319 319 319 319 319 320 319 319 320 318 316 315 315 316 316 315 314 314 314 315 315 316 314 312 311 310 309 308 307 306 305 304 303 302 302 302 302 303 304 304 304 304 304 304 305 306 307 307 307 307 306 306 306 306 307 306 306 307 307 307 306 306 307 308 309 309 309 309 308 308 308 308 308 308 308 309 309
320 319 318 317 317 318 318 318 320 319 318 320 321 321 319 318 319 319 318 317 315 316 316 316 317 317 315 316 317 317 317 313 310 310 309 308 307 306 305 304 303 303 301 301 302 302 302 303 304 304 304 305 305 305 306 307 307 306 306 305 306 306 306 306 306 306 306 306 306 306 306 306 307 307 308 308 308 308 307 307 306 306 305 305 306 306
318 318 318 318 318 319 319 318 320 320 319 320 322 322 319 318 318 318 318 318 317 318 317 316 321 321 319 319 319 319 317 312 310 310 308 308 307 306 305 304 303 302 301 301 301 301 301 302 302 303 304 305 305 305 305 306 307 307 306 306 305 305 305 305 306 306 306 305 305 305 305 306 306 307 307 307 307 307 306 305 304 304 304 304 304 304
318 316 317 319 318 320 320 319 318 319 318 319 321 321 318 316 318 318 317 318 319 320 316 315 320 321 318 318 318 319 318 312 309 309 308 307 306 305 304 303 302 301 301 301 301 300 300 300 301 302 303 304 304 304 304 305 306 307 307 307 306 306 305 305 305 305 305 305 305 305 304 305 305 305 306 306 306 305 304 303 303 303 303 303 303 303
318 318 318 318 318 320 321 319 319 318 319 321 320 318 316 315 317 318 317 318 319 318 316 316 319 319 318 318 317 319 319 313 309 309 308 307 306 304 304 302 302 301 300 300 300 299 299 299 300 300 301 302 302 303 304 304 305 306 306 306 306 306 306 305 305 305 305 305 304 304 304 304 304 304 304 304 304 304 303 303 302 302 303 303 303 303
317 320 320 318 319 319 319 319 320 318 318 321 319 316 315 315 316 317 317 318 318 317 318 318 318 320 319 318 317 319 318 313 310 309 307 306 305 304 303 302 301 300 299 299 299 298 298 298 298 299 300 301 301 302 303 304 305 305 305 305 305 305 305 305 305 305 305 305 305 304 304 303 303 303 303 303 303 303 302 302 302 302 303 303 303 303
316 316 316 317 319 319 317 319 321 321 318 317 316 315 316 316 316 317 317 317 317 317 318 319 319 320 320 319 319 320 318 314 310 309 307 306 305 304 303 302 301 300 299 298 298 297 297 297 298 298 299 300 300 301 302 303 304 305 304 304 305 304 304 304 304 304 305 305 305 305 305 304 304 303 303 302 302 302 302 302 302 302 302 302 303 302
313 310 311 314 317 316 315 316 317 320 317 314 314 316 317 319 318 317 318 316 317 318 319 319 319 318 322 324 320 319 318 314 310 309 307 305 304 303 302 302 300 299 298 298 297 297 297 297 297 297 298 298 299 300 301 303 304 304 304 304 304 303 303 303 303 303 303 303 303 303 304 304 304 304 304 303 303 302 301 301 301 301 301 301 302 301
313 312 313 313 312 312 315 315 313 314 314 313 315 315 317 320 318 316 317 316 318 322 322 320 319 318 322 325 318 315 315 313 310 309 306 304 303 302 301 301 300 299 298 297 296 296 296 296 296 296 297 298 299 301 302 302 303 303 303 303 303 303 302 302 302 302 302 302 302 302 302 302 302 303 303 303 303 303 302 301 301 301 301 301 301 301
318 316 315 313 312 311 315 315 314 313 313 313 315 314 317 321 320 320 320 319 320 322 321 321 322 320 319 320 317 314 312 311 310 308 306 304 302 301 300 300 299 298 297 296 296 296 296 295 295 296 297 299 300 301 301 301 301 301 301 301 302 301 301 301 301 301 301 301 301 301 301 301 301 301 301 301 302 302 302 302 302 302 301 301 301 300
321 319 316 315 315 312 312 314 317 317 314 312 315 318 320 321 321 322 322 322 323 322 320 318 320 321 319 317 316 312 307 307 307 306 305 303 301 300 299 299 298 297 296 296 296 296 295 295 296 297 299 300 300 300 300 300 300 300 300 300 300 300 299 299 299 299 299 299 299 299 299 299 299 299 300 300 300 300 301 301 301 302 302 302 301 301
321 321 318 318 317 313 312 313 316 318 314 313 316 320 322 321 321 320 321 322 323 322 320 317 319 322 320 315 311 307 305 304 303 303 302 301 300 300 298 298 297 297 296 295 295 295 295 296 298 300 300 300 300 299 299 300 300 300 300 299 299 299 298 298 298 298 298 297 297 297 297 297 297 298 298 298 299 299 299 300 300 300 300 301 301 301
320 321 318 316 314 312 313 314 313 316 318 317 317 319 321 321 320 320 321 321 321 322 321 319 322 322 316 311 307 305 304 303 302 302 301 300 300 299 298 297 297 296 296 295 294 295 295 297 298 299 299 299 299 299 299 299 299 299 298 298 297 297 297 297 297 296 296 296 296 295 295 295 295 296 296 297 297 297 298 298 299 299 299 299 300 300
321 321 318 315 313 311 312 314 312 314 318 318 318 320 319 318 318 320 321 320 319 321 320 318 320 319 315 311 307 305 304 303 302 301 300 300 299 298 298 297 296 296 295 294 294 295 296 297 297 298 298 298 298 297 297 297 297 297 296 296 296 295 295 295 295 295 294 294 294 294 294 293 294 294 294 294 294 295 295 296 297 297 298 298 298 299
321 320 318 317 317 312 309 311 311 311 315 318 319 318 316 317 318 318 319 319 320 320 319 318 318 317 316 315 309 306 305 303 302 301 300 299 299 298 297 296 296 295 295 295 295 296 297 297 297 297 297 297 296 296 296 296 295 295 294 294 294 294 294 293 293 293 293 293 293 292 292 292 292 292 292 292 292 292 293 294 294 295 295 296 296 297
319 319 318 317 319 315 309 311 315 312 313 315 315 314 315 319 320 318 318 318 320 319 318 318 317 316 317 316 312 309 307 303 302 302 300 299 298 298 297 296 296 296 296 297 297 298 298 297 297 297 296 296 295 295 294 294 294 293 293 293 292 292 292 291 291 291 291 291 291 291 291 291 291 291 290 290 290 291 291 292 292 292 293 293 293 294
318 319 320 316 316 316 313 315 318 316 314 313 312 313 316 318 317 317 318 318 318 318 318 317 316 317 316 313 312 310 306 304 303 302 300 299 298 298 297 296 296 297 297 298 297 296 296 296 295 295 295 294 294 293 293 292 292 292 292 292 291 291 291 291 291 290 290 290 290 290 289 289 289 289 289 289 289 289 290 290 290 290 290 291 291 291
318 318 319 316 315 316 317 316 317 316 315 315 314 314 315 315 316 316 316 317 317 316 317 317 316 318 314 309 308 308 306 305 303 301 300 298 298 297 297 297 296 296 296 295 295 294 294 294 293 293 293 292 292 292 292 291 291 291 291 291 290 290 290 290 290 290 289 289 289 289 289 289 289 289 288 288 288 288 288 288 288 289 289 289 289 289
316 317 317 317 316 316 316 315 314 314 314 315 315 314 314 315 316 316 315 316 316 315 316 316 316 318 311 305 307 307 305 304 302 300 299 298 298 297 297 296 296 295 295 294 294 294 293 293 292 292 291 291 290 290 290 290 290 290 290 290 290 290 289 289 289 289 289 288 288 288 288 288 288 288 288 288 288 288 288 288 288 288 288 288 288 288
314 315 316 316 316 315 314 313 312 313 313 313 314 314 315 315 315 316 315 315 315 315 315 315 315 315 309 303 304 304 302 302 301 300 299 298 298 298 297 296 296 295 295 294 294 294 293 292 291 291 290 290 290 289 289 289 289 288 288 288 288 289 289 289 289 288 288 288 288 288 287 288 288 288 288 288 288 288 288 287 287 287 287 287 287 287
312 314 315 315 314 313 314 313 312 314 314 314 314 313 314 314 314 315 314 313 314 314 314 314 314 314 308 302 302 302 301 301 301 300 300 299 298 298 297 297 296 295 294 294 294 294 292 292 291 290 290 289 289 289 288 289 288 288 288 288 288 288 288 288 288 288 288 288 288 287 287 287 287 287 287 287 287 287 287 287 287 287 287 287 287 287
312 314 314 314 314 313 313 312 313 316 316 314 314 313 312 312 313 314 312 312 312 313 313 313 313 314 309 302 301 301 301 301 301 301 300 299 299 299 298 297 296 295 294 294 293 292 291 290 290 289 289 289 288 288 288 288 288 288 288 288 287 287 287 287 287 287 287 287 287 287 287 287 287 287 287 287 287 287 287 287 287 287 287 287 287 287
312 313 313 313 312 312 311 311 312 314 313 312 312 312 311 310 310 311 312 311 311 311 312 312 312 312 309 304 303 303 302 302 301 300 300 300 300 299 299 297 297 296 295 294 292 291 290 290 289 289 289 288 288 288 288 288 288 288 288 288 287 287 287 287 287 287 287 287 287 287 287 287 287 287 287 287 287 287 287 287 287 287 287 287 287 287
310 311 311 312 312 311 311 311 311 310 309 309 310 309 309 308 308 308 308 308 308 308 308 308 308 308 308 307 307 306 304 304 302 299 299 300 300 299 298 297 297 297 295 293 291 290 290 290 289 289 289 288 288 288 288 288 288 288 288 287 288 287 287 287 287 287 287 287 287 287 287 287 287 287 287 287 287 287 287 287 286 286 286 286 286 286
309 309 310 310 310 310 310 309 308 307 307 307 307 307 307 307 307 308 307 306 306 307 307 306 306 307 306 306 307 307 306 306 303 300 300 300 300 299 298 297 296 296 294 292 291 290 290 290 289 289 289 289 288 288 288 288 288 287 287 287 287 287 287 287 287 287 287 287 287 287 287 287 287 287 287 287 287 287 286 286 286 286 286 286 286 286
307 308 307 306 306 306 306 305 305 305 305 305 306 306 306 306 307 307 306 306 306 307 306 306 306 307 306 306 306 306 305 304 303 302 302 302 300 299 298 296 295 294 293 292 291 291 290 290 290 290 289 289 289 289 289 288 288 288 288 288 288 287 287 287 287 287 287 287 287 287 287 287 287 287 287 286 286 286 286 286 286 286 286 286 286 286
306 307 306 305 305 305 305 305 305 305 305 304 305 305 305 305 306 305 306 306 306 306 306 306 306 306 305 305 305 304 303 302 302 302 302 301 299 298 297 296 295 294 293 292 291 291 291 291 290 290 290 290 290 290 289 289 288 288 288 288 288 288 288 287 287 287 287 287 287 287 286 286 286 286 286 286 286 286 286 286 286 286 286 286 286 286
305 306 305 304 304 304 304 304 304 305 305 304 304 305 305 305 305 306 305 306 306 306 305 305 305 304 304 303 302 302 301 300 300 299 298 297 297 297 296 296 295 295 293 292 291 291 291 291 290 290 290 290 290 290 289 289 289 289 288 288 288 288 287 287 287 287 287 287 286 286 286 286 286 286 286 286 286 286 286 286 286 286 286 286 286 286
305 305 304 303 303 303 302 303 303 304 304 304 303 303 304 304 304 304 304 305 305 304 304 304 303 304 304 302 300 300 300 298 298 297 296 295 295 295 295 295 295 295 294 293 292 292 291 291 290 290 290 290 290 290 289 289 289 289 288 288 288 287 287 287 287 286 286 286 285 285 285 284 285 285 285 285 285 285 285 285 285 285 285 285 285 285
304 304 303 303 302 302 302 303 303 302 302 301 301 301 302 302 302 302 303 304 304 303 303 303 303 304 303 300 299 300 299 297 296 295 295 294 294 293 293 293 293 293 294 293 293 292 291 291 291 290 290 290 290 290 289 289 289 288 288 288 287 287 287 286 286 286 285 285 284 284 284 283 283 284 284 284 284 284 284 284 284 284 284 284 284 284
303 303 302 302 302 301 302 302 301 301 300 300 301 301 301 301 302 302 302 302 302 302 303 302 301 302 301 299 299 299 297 295 294 293 293 293 293 293 292 292 292 292 292 293 292 292 292 291 291 290 290 290 290 289 289 289 289 288 288 287 287 286 286 286 286 285 285 284 284 283 283 283 283 283 283 283 282 282 283 282 282 283 283 282 282 283
302 302 301 301 301 300 300 300 299 298 299 300 302 302 300 300 301 301 301 301 301 301 301 300 300 300 298 296 295 294 293 292 292 291 291 291 292 292 292 291 291 291 291 291 291 291 291 291 290 290 290 290 290 290 290 289 289 288 287 287 286 286 286 285 285 284 284 284 283 283 283 282 282 282 282 282 281 281 281 281 281 281 281 281 280 281
301 301 300 300 300 299 299 299 298 297 297 300 302 300 299 299 300 299 299 299 299 300 299 299 300 298 294 293 292 291 291 291 290 290 291 291 291 291 291 291 291 291 290 290 290 290 290 290 290 290 290 290 290 290 289 289 288 287 287 286 286 286 285 285 284 284 283 283 283 283 282 282 281 281 281 281 280 280 280 280 280 280 279 279 279 279
300 300 299 299 299 298 298 298 298 297 297 298 299 298 297 298 298 298 298 299 299 298 297 299 300 295 291 291 291 290 291 291 290 291 291 292 292 292 292 291 291 290 289 289 289 289 289 290 290 290 290 290 290 289 289 288 287 287 287 286 286 286 285 284 283 283 283 283 283 282 282 281 281 280 280 280 279 279 279 278 278 278 278 278 278 279
299 299 299 298 299 299 298 298 298 297 297 298 297 296 296 296 295 296 297 298 299 297 295 297 298 294 290 290 290 290 291 291 292 292 291 291 292 291 291 291 290 290 289 289 289 289 289 290 290 290 290 290 289 288 288 287 287 287 286 286 285 285 284 283 283 283 283 283 282 282 282 281 280 279 279 278 278 278 278 278 277 277 277 277 277 277
298 299 299 299 299 299 298 298 297 296 297 298 297 295 294 295 295 295 295 295 295 295 295 296 294 290 289 290 290 291 292 292 293 292 291 291 291 291 291 290 290 290 290 289 289 289 289 289 289 289 290 289 288 288 287 287 287 286 286 285 284 284 283 283 283 283 283 282 282 282 281 280 279 279 278 278 278 277 277 277 277 277 276 276 275 276
297 297 299 298 298 298 298 297 297 296 296 297 296 294 294 295 294 294 294 294 293 293 295 295 292 290 290 290 290 293 294 293 292 292 291 291 291 290 290 290 290 290 290 290 290 289 289 289 289 289 289 288 288 288 287 287 287 286 285 284 283 283 283 283 283 283 282 282 282 281 281 280 279 278 278 278 278 278 277 277 276 276 276 275 274 274
296 296 297 297 297 297 297 297 296 296 296 296 295 295 294 294 294 294 293 294 293 293 294 295 294 292 291 290 290 292 293 292 291 291 290 291 290 290 290 290 290 290 290 290 289 289 289 289 289 289 288 288 287 287 287 287 286 285 284 283 283 283 283 283 282 282 282 282 281 281 280 280 279 278 278 278 277 277 277 277 275 275 275 274 273 272
295 295 296 296 295 295 295 295 295 295 295 295 294 294 294 294 295 294 294 293 293 293 293 294 294 293 292 291 291 291 291 291 291 290 290 290 290 290 290 290 290 290 290 290 289 289 289 289 289 288 288 287 287 287 286 286 285 284 283 283 283 283 282 282 282 282 282 281 281 281 280 280 279 278 278 277 277 276 276 276 275 274 273 272 271 270
295 295 295 295 295 294 294 294 294 294 294 293 293 294 295 295 295 294 293 293 293 293 292 293 294 293 293 292 292 291 291 291 290 290 290 290 290 290 289 289 289 289 289 289 289 289 289 289 288 288 287 287 286 286 285 284 283 283 283 283 282 282 282 282 281 281 281 281 281 280 280 280 279 278 277 277 276 275 275 275 273 272 271 269 268 268
295 295 294 294 294 294 294 294 294 294 293 293 294 294 295 295 294 293 293 293 293 293 292 292 292 292 292 292 292 291 291 290 290 290 290 290 289 289 289 289 289 289 289 289 289 289 289 288 288 287 287 286 286 285 284 283 282 283 283 282 282 282 281 281 281 281 280 280 280 280 279 279 278 277 277 276 275 274 273 272 270 269 268 267 266 266
295 294 294 294 294 294 294 293 293 293 292 292 293 294 293 293 293 293 293 292 292 292 292 292 292 292 291 291 291 291 290 290 290 290 289 289 289 289 289 289 289 289 289 289 289 289 288 288 287 286 286 286 285 284 283 282 282 283 282 282 281 281 281 280 280 280 280 280 279 279 278 278 277 277 276 275 273 272 271 269 268 267 266 265 265 265
293 293 293 293 293 293 293 293 292 292 292 292 292 292 293 293 292 292 292 292 292 292 292 292 292 291 291 291 290 290 290 290 289 289 289 289 289 289 289 289 289 289 289 289 288 288 287 287 286 286 285 285 283 282 282 282 282 282 282 281 281 280 280 280 280 280 280 279 278 278 277 277 277 276 275 273 272 271 269 268 267 266 266 265 265 265
292 292 292 292 292 292 292 292 292 292 292 292 292 292 292 292 292 292 292 292 292 292 292 291 291 291 291 290 290 290 290 289 289 289 289 289 289 289 289 288 288 288 288 288 287 287 287 286 286 285 284 283 282 282 282 282 282 281 281 280 280 279 279 279 279 279 279 278 278 277 277 276 275 274 273 272 271 269 268 267 266 266 265 265 265 264
292 292 292 292 291 291 291 291 291 291 292 292 292 292 291 291 291 291 291 291 291 291 291 291 291 290 290 290 290 289 289 289 289 289 289 289 288 288 288 288 288 288 287 287 287 286 286 285 285 284 283 282 282 282 282 282 281 280 280 279 279 279 279 279 278 278 278 277 277 277 276 275 274 273 271 270 269 268 267 266 266 265 264 264 264 264
292 292 292 292 292 291 291 291 291 291 291 291 291 291 291 291 291 291 291 291 291 291 291 291 290 290 290 290 289 289 289 289 289 288 288 288 288 288 288 287 287 287 286 286 286 285 284 284 283 282 282 282 282 282 282 281 281 279 279 278 278 278 278 278 278 277 277 277 277 276 275 274 272 271 270 268 267 267 266 265 265 264 264 264 264 264
292 292 292 292 292 292 291 291 291 291 291 291 291 292 292 291 291 291 291 291 291 291 290 290 290 290 290 289 289 289 289 289 288 288 287 287 287 287 287 286 286 286 286 285 285 284 283 282 282 281 281 282 282 281 281 281 280 279 278 277 277 277 277 277 277 277 277 276 276 275 274 272 271 270 268 267 266 265 265 265 264 264 263 263 264 264
292 292 291 291 291 292 291 291 292 291 291 291 291 292 291 291 291 291 291 291 291 291 290 290 290 290 290 289 289 288 288 288 287 287 287 286 286 286 286 286 286 285 285 284 284 283 282 281 281 281 281 281 281 281 281 280 279 278 277 276 276 276 276 276 276 276 276 275 274 274 272 271 270 268 266 266 265 265 264 264 264 264 264 264 264 264
Wind_Speed
10 4 3 5 5 9 10 10 11 10 10 10 8 7 7 6 7 7 10 8 2 0 5 5 6 7 8 8 12 25 27 19 18 19 10 11 20 22 21 21 21 21 20 19 19 20 19 18 18 17 16 14 12 11 9 7 6 5 4 3 3 5 6 5 4 6 6 6 7 7 8 10 12 14 17 19 21 24 27 29 31 32 34 34 33 33
7 4 5 7 10 13 12 11 11 8 7 8 6 5 6 4 7 8 9 9 1 3 4 4 6 8 9 11 15 20 16 12 10 4 13 22 23 21 22 22 21 21 20 21 24 25 25 24 24 24 24 22 20 19 17 16 14 11 8 7 6 5 5 5 4 3 4 4 3 4 5 6 7 10 12 13 15 17 20 24 26 29 30 31 32 32
3 4 7 11 12 12 11 10 10 8 6 6 5 4 5 4 7 7 7 5 2 2 3 4 6 7 11 15 15 16 12 2 12 20 22 21 22 21 21 20 19 20 21 24 27 28 29 29 29 30 30 29 28 27 26 25 23 20 16 12 9 6 4 3 3 3 1 2 2 2 3 5 6 9 11 12 14 15 16 18 20 21 23 24 25 27
4 5 11 16 13 10 10 10 8 7 5 4 4 3 5 5 4 5 3 1 2 2 4 5 6 5 11 14 12 17 8 14 25 26 24 22 23 21 20 19 18 18 20 25 27 28 31 32 33 34 33 33 33 32 31 31 30 28 25 21 17 13 8 6 5 3 2 2 3 2 2 3 5 7 10 11 12 13 14 15 15 15 16 17 18 19
6 7 9 11 10 9 8 8 6 5 4 4 6 5 6 7 6 5 3 3 3 3 4 3 5 4 7 9 7 10 3 18 21 23 24 21 20 20 20 19 18 17 20 25 27 28 31 32 34 34 35 35 36 36 35 34 33 31 29 27 24 21 17 13 10 6 4 5 6 5 5 4 4 5 8 11 11 11 13 13 13 13 13 13 13 14
8 8 8 6 6 6 5 6 6 5 3 5 5 6 7 6 5 4 4 5 4 4 2 2 2 3 3 5 7 7 2 10 12 16 19 18 19 19 18 18 16 17 21 25 26 27 29 31 31 33 34 35 36 37 36 35 34 33 32 31 29 27 24 22 18 13 10 8 7 7 7 7 6 6 8 9 10 11 14 16 15 14 13 12 12 11
4 3 1 2 4 4 4 6 6 5 3 4 3 2 2 0 1 2 3 1 1 3 2 3 1 4 4 6 8 9 4 7 8 10 14 17 18 18 18 16 14 16 21 24 25 25 27 28 30 32 33 34 35 35 35 35 35 34 33 33 32 31 30 28 26 22 19 16 13 11 9 8 7 6 5 5 7 9 11 13 14 13 12 11 11 11
3 4 3 1 3 3 4 6 5 6 4 3 3 2 3 1 1 1 0 2 3 3 4 4 4 5 6 7 8 11 7 7 8 7 11 15 17 18 18 16 14 15 18 22 24 24 26 27 28 31 31 32 33 33 33 34 34 34 33 33 32 33 33 32 30 28 26 24 22 19 16 14 11 9 7 6 7 10 11 12 13 13 11 10 10 10
0 4 3 3 4 4 5 3 2 6 4 2 2 0 2 2 0 1 2 4 3 3 4 5 6 4 6 6 7 12 10 7 9 7 9 13 17 18 17 15 14 14 16 19 21 23 25 26 27 29 30 31 31 31 32 32 32 32 31 31 31 31 32 32 31 30 30 29 27 25 23 20 17 15 12 11 9 10 12 13 14 14 14 12 11 10
1 3 2 3 5 4 3 1 2 2 3 2 2 1 1 2 3 4 5 4 2 3 5 6 7 4 5 5 5 9 8 6 7 5 8 12 17 18 16 14 13 14 16 17 19 22 24 26 27 27 28 29 30 30 30 30 30 30 29 29 29 30 30 30 29 29 29 28 27 27 26 24 22 19 17 15 14 13 12 12 13 14 15 16 15 13
1 4 2 2 4 2 4 3 3 2 2 2 1 1 2 4 4 4 4 3 1 4 7 9 12 8 4 5 3 2 4 9 9 6 7 11 16 18 16 13 11 13 15 16 19 21 22 23 24 25 27 28 29 29 29 30 29 29 28 28 28 29 28 28 28 27 27 27 26 26 25 25 24 22 21 19 18 16 15 13 12 13 14 15 17 17
2 2 1 4 6 3 5 2 2 3 2 2 1 1 3 3 2 2 1 2 2 5 6 6 11 12 5 4 2 5 5 10 10 9 10 11 15 18 17 15 12 12 13 16 18 19 19 21 22 24 25 27 28 28 29 29 28 27 27 26 26 27 27 27 26 26 26 26 26 25 24 24 23 22 21 21 20 18 17 15 13 13 13 13 14 16
3 5 4 3 4 5 4 1 1 3 2 2 2 2 1 2 0 1 1 2 3 6 4 4 1 6 6 6 3 7 7 4 7 11 13 13 15 17 16 15 14 12 12 15 17 18 19 19 20 22 25 27 28 28 27 26 26 26 26 25 25 26 25 25 25 25 25 25 25 24 23 23 22 21 21 20 20 19 18 17 16 15 15 14 13 13
1 2 4 3 1 6 7 3 1 1 2 5 4 4 4 1 2 3 3 3 3 4 2 6 6 1 2 4 3 6 7 10 16 20 19 18 18 18 16 15 14 12 12 15 17 18 17 17 19 22 25 26 26 25 24 24 24 24 24 23 24 24 23 23 23 23 23 23 23 22 22 22 21 21 20 20 19 19 19 18 18 17 17 16 15 13
3 3 4 4 1 7 9 4 1 1 4 7 5 4 4 3 3 3 3 3 3 2 2 2 2 1 2 0 3 9 11 15 21 22 21 21 19 17 16 15 13 11 11 13 15 15 16 17 20 21 22 22 21 20 20 20 21 21 21 21 21 21 21 21 21 21 22 21 21 20 20 20 20 20 19 19 19 19 19 19 18 18 18 17 16 15
4 4 1 1 2 8 7 3 1 3 1 3 1 2 2 3 3 3 4 4 2 2 3 2 2 4 1 4 6 9 12 15 18 19 20 19 16 16 15 13 11 9 10 12 13 15 16 18 19 19 18 17 17 17 17 18 18 19 19 19 20 20 20 20 20 20 20 20 20 20 20 20 19 19 19 19 19 19 19 19 18 18 18 18 17 16
2 3 1 1 2 3 3 1 1 1 0 1 2 1 3 2 2 1 4 3 2 3 4 3 4 4 1 3 5 8 9 9 11 13 16 16 15 15 14 12 10 10 11 12 13 14 15 15 16 15 15 14 14 15 15 16 16 17 17 17 17 18 18 18 19 19 19 19 19 20 20 20 20 20 20 20 20 20 20 19 19 19 18 18 18 17
1 1 3 4 2 0 1 1 2 2 2 3 1 2 1 2 2 1 2 3 4 5 4 5 6 6 3 1 3 6 7 7 7 9 12 14 14 14 12 10 10 11 11 11 11 12 12 12 11 11 11 11 11 12 13 13 14 14 15 15 16 16 17 18 18 18 18 18 19 19 20 20 21 21 21 21 21 21 20 20 20 20 20 20 20 19
2 0 4 2 2 2 2 1 2 2 2 3 2 1 1 0 2 1 2 2 5 6 4 5 7 6 4 2 1 4 7 8 7 7 8 10 12 12 10 9 9 10 9 8 8 8 7 7 7 7 8 8 9 10 10 11 11 12 13 14 15 16 17 17 17 18 18 18 18 19 19 20 20 21 21 21 22 22 22 22 22 21 21 22 22 22
3 0 2 1 3 2 1 1 1 1 2 3 2 2 1 2 3 2 2 2 4 6 5 4 6 5 3 2 2 3 8 9 8 7 6 8 11 11 9 8 7 7 6 5 5 4 4 4 5 5 5 6 7 7 8 9 9 11 12 13 14 15 16 16 17 17 18 18 19 19 19 19 20 20 21 21 22 22 23 23 23 23 23 23 23 23
1 2 3 1 2 2 0 2 5 4 2 0 1 1 1 1 2 2 2 2 3 4 5 5 6 5 1 2 3 5 7 7 7 7 6 8 10 9 8 7 6 5 4 3 3 2 3 4 5 5 6 6 6 7 7 8 9 10 11 12 13 14 15 16 16 17 18 19 19 20 21 21 21 21 21 22 22 23 23 23 24 24 24 24 24 24
0 1 2 2 2 2 3 4 3 2 2 0 1 3 4 2 1 2 4 4 3 3 4 5 7 5 1 2 3 6 5 5 9 9 7 9 10 9 8 7 7 6 4 3 2 1 2 3 4 5 6 7 8 9 10 11 11 12 12 13 14 14 15 15 16 17 18 19 19 20 21 22 23 23 23 23 23 23 24 24 24 24 24 24 25 25
2 1 1 3 4 6 7 7 7 8 7 6 4 3 3 2 2 3 5 3 2 3 4 5 7 4 1 1 2 5 6 9 13 13 12 12 12 10 8 7 6 6 5 4 2 2 2 1 2 3 5 6 7 9 11 12 13 14 15 15 16 16 16 16 17 18 18 19 20 21 22 22 23 24 25 25 25 24 25 25 25 25 25 25 25 25
3 1 1 3 4 6 9 10 9 7 5 5 4 2 1 2 2 2 2 1 1 4 4 5 7 4 2 1 2 5 9 11 13 14 14 13 12 9 8 7 7 7 6 5 4 4 2 1 0 2 3 5 6 8 9 10 11 13 14 15 16 17 17 17 17 18 19 20 21 22 23 24 25 25 26 26 27 26 26 26 27 27 28 28 27 26
1 0 0 1 3 3 5 6 4 3 3 1 2 3 3 4 5 3 0 1 1 5 7 6 6 4 1 1 1 3 5 7 9 11 12 13 13 11 11 11 11 11 9 8 7 5 4 2 0 1 2 4 4 5 6 7 8 10 11 12 13 15 16 16 17 18 19 20 21 22 24 25 26 27 28 28 29 29 29 29 28 28 29 30 30 31
0 0 1 2 3 4 4 4 1 2 3 1 3 4 5 5 6 5 2 3 4 5 5 5 6 4 2 2 3 4 4 5 7 10 12 13 15 15 15 16 16 14 12 10 9 7 5 3 2 1 1 1 2 3 4 4 5 6 7 9 10 12 13 14 16 17 18 19 20 21 23 24 26 27 28 30 30 31 31 32 32 31 31 31 31 32
1 1 2 4 5 5 6 6 5 3 3 4 6 7 8 9 8 5 3 6 6 5 5 8 10 9 7 8 7 4 6 7 7 11 15 17 18 18 19 19 18 15 13 11 9 8 6 4 3 3 3 3 4 4 5 6 6 7 8 8 10 12 13 15 16 17 18 20 21 22 24 25 26 27 28 29 30 32 33 33 34 34 34 34 35 34
1 2 4 6 6 6 7 9 10 8 7 7 8 10 11 10 9 7 8 8 5 4 7 11 11 11 10 11 9 5 4 5 6 11 17 20 21 21 20 18 16 13 11 10 9 7 6 5 5 5 5 6 6 7 8 9 10 11 12 13 14 15 16 17 19 19 20 21 23 24 25 26 28 29 30 31 31 32 34 34 35 36 37 37 38 38
2 3 5 4 6 8 9 10 10 9 8 8 9 11 11 12 12 11 11 10 6 7 10 10 11 13 11 9 10 10 11 12 14 18 21 19 17 17 17 15 13 11 10 11 10 9 9 8 8 7 8 8 9 9 10 11 12 13 15 18 19 20 20 21 22 23 24 25 26 26 27 28 29 30 31 32 33 34 35 35 36 37 38 39 39 40
1 3 4 4 5 8 9 9 8 7 9 10 11 12 13 15 15 13 12 13 11 12 12 12 14 14 11 11 12 13 15 15 13 14 11 5 7 10 11 11 11 11 11 12 12 11 11 10 10 10 11 10 11 11 11 12 14 15 17 20 21 22 21 22 23 26 28 29 30 31 31 31 31 32 32 33 34 35 36 36 37 38 38 39 40 41
1 2 2 2 4 7 9 8 6 5 7 9 11 13 14 15 14 13 13 13 12 12 13 14 14 13 10 8 6 6 8 8 7 6 3 2 2 5 7 8 10 11 11 11 12 12 12 12 11 11 11 12 12 13 13 13 14 16 18 21 22 21 21 21 24 27 29 31 32 33 34 34 34 34 34 34 35 36 36 37 38 39 40 41 42 43
1 2 3 2 4 7 8 9 6 3 4 8 13 16 16 14 13 12 11 10 10 12 13 13 11 9 5 1 3 2 2 4 3 2 1 0 2 4 6 7 9 10 11 12 12 12 12 12 12 12 13 13 14 14 14 14 15 17 19 22 22 21 21 23 26 28 30 31 32 34 35 35 35 36 37 38 38 39 40 41 42 43 44 45 45 46
2 1 1 2 5 7 8 8 3 3 4 9 12 13 14 14 14 13 11 11 13 12 10 10 8 5 3 1 1 1 2 3 2 2 3 1 2 3 5 8 9 10 12 13 13 13 13 13 14 14 14 14 15 15 16 16 17 19 21 22 21 21 22 25 28 30 32 33 34 35 35 36 37 38 40 41 42 42 43 44 46 48 49 50 51 51
4 4 3 4 4 6 7 5 2 2 9 9 4 6 10 12 12 12 11 11 11 8 7 7 5 3 4 4 3 2 3 3 2 2 3 3 3 5 9 10 11 12 12 13 13 13 14 14 14 15 16 16 17 17 17 18 20 23 24 22 21 22 24 27 30 33 35 36 37 37 37 38 39 40 43 44 44 45 46 48 50 51 52 53 54 56
4 5 4 4 4 5 5 4 3 8 10 4 1 4 7 7 7 9 9 10 10 8 9 11 7 4 5 5 6 5 4 2 3 5 6 6 8 12 14 15 14 13 13 14 14 15 16 16 16 17 17 18 18 18 19 22 25 26 23 21 22 25 27 31 34 36 37 38 38 39 39 40 41 43 46 46 46 47 49 51 52 54 54 54 56 57
6 5 3 3 4 3 2 4 7 7 4 4 4 4 2 2 5 6 7 8 8 8 7 6 3 4 8 8 8 5 2 2 6 10 11 10 11 14 16 17 16 15 15 15 16 17 17 17 17 18 18 19 19 21 23 25 26 24 22 23 25 29 32 34 36 37 38 39 40 41 41 43 44 47 49 49 49 50 52 53 54 55 56 56 57 58
7 5 3 3 4 4 4 7 7 6 7 7 7 4 1 2 3 3 3 5 6 6 4 4 5 6 9 10 6 3 1 1 5 11 12 10 9 12 14 16 16 15 15 16 17 18 17 17 17 19 20 21 22 23 24 25 24 24 25 28 30 33 36 37 37 38 40 41 43 44 45 46 47 49 51 51 52 53 54 55 56 56 55 55 56 58
7 6 5 4 5 4 4 6 6 7 8 6 4 3 1 4 3 2 1 3 4 6 5 4 7 7 9 9 6 5 3 1 3 9 10 7 5 8 11 13 15 15 15 16 16 17 17 17 18 20 21 22 22 23 24 25 26 27 30 32 34 36 37 37 39 40 43 45 46 48 50 50 50 51 52 52 53 54 55 56 56 55 54 53 55 57
5 5 5 5 5 5 5 6 6 6 5 3 3 3 2 6 7 8 6 4 2 4 4 3 7 9 11 10 9 8 4 1 3 7 8 6 9 11 12 14 16 16 16 16 16 17 18 18 19 19 20 21 22 24 26 27 29 31 33 35 36 36 37 39 41 44 46 48 50 52 53 53 53 53 53 53 54 55 55 56 56 55 54 54 54 55
2 2 4 5 7 7 7 7 6 5 4 3 5 5 3 3 8 8 7 6 1 0 3 7 10 13 15 12 9 7 5 5 7 11 14 13 14 16 17 19 19 18 18 17 16 17 19 20 20 20 21 23 25 27 28 30 32 34 35 35 36 36 38 41 44 46 49 51 53 54 55 55 55 55 54 55 56 56 56 56 56 55 55 54 54 54
1 1 3 6 7 9 9 7 5 5 5 5 7 8 6 4 5 2 8 5 3 4 6 9 12 16 16 12 9 8 9 11 13 18 20 18 18 19 20 21 21 19 18 17 18 18 19 20 21 23 24 26 27 28 30 32 34 34 34 35 36 38 41 43 46 49 51 53 54 56 56 56 55 56 55 56 56 56 57 56 54 55 55 54 54 53
2 1 2 5 6 6 7 6 6 6 3 3 3 6 7 4 0 5 4 1 2 6 7 10 14 15 15 14 13 13 16 18 19 21 21 20 21 20 20 20 21 20 19 19 20 21 21 23 24 25 27 28 28 30 32 33 34 33 34 35 37 40 43 46 49 51 52 54 55 56 56 56 55 55 56 55 55 55 56 55 53 53 53 52 51 52
4 2 3 4 4 4 4 6 6 5 1 5 4 2 4 5 4 5 3 1 3 6 7 11 14 15 17 19 19 19 21 22 22 22 21 20 20 19 19 21 22 21 20 20 22 24 25 26 27 28 29 29 29 31 32 32 32 33 34 37 39 42 46 48 50 51 52 54 55 55 55 55 55 54 54 54 53 53 54 54 52 51 50 48 48 48
2 3 3 3 3 4 4 5 5 3 2 5 6 4 6 8 8 8 7 5 6 8 11 14 16 17 20 21 22 22 22 23 23 22 21 20 19 19 20 21 21 20 20 22 24 26 27 28 29 29 29 29 30 32 32 31 32 34 36 39 42 45 47 49 50 51 52 52 53 53 54 54 54 54 53 52 51 51 52 52 50 49 47 45 44 45
5 8 7 6 5 5 5 5 3 3 8 8 9 11 13 14 16 18 17 15 16 16 16 17 19 20 20 20 21 20 21 22 21 21 20 20 20 20 21 20 20 20 22 24 25 27 28 29 30 29 29 30 31 31 31 31 33 36 39 41 44 47 48 49 49 50 51 51 52 52 52 53 53 52 51 50 50 50 51 51 49 48 46 45 44 45
9 12 9 5 4 4 5 9 9 13 20 21 16 16 18 19 22 26 25 25 26 25 24 23 22 21 20 19 19 19 20 21 21 22 23 22 22 21 20 20 21 23 24 26 27 28 29 30 29 29 30 30 30 30 30 32 34 38 41 43 45 46 47 47 48 49 50 50 50 51 51 52 52 52 51 51 51 51 51 50 49 48 47 46 46 45
9 14 10 4 5 5 4 6 9 13 21 25 23 22 23 24 27 28 28 27 26 24 23 22 21 21 21 20 19 19 21 22 23 24 24 23 22 21 21 22 24 26 27 28 28 29 29 29 29 30 30 30 29 29 31 34 36 40 42 44 44 44 44 45 46 48 49 49 49 50 50 50 51 52 52 51 50 49 48 47 46 46 45 44 44 44
7 12 9 6 8 8 6 9 15 20 24 26 25 23 22 24 25 26 26 26 24 22 22 21 20 20 19 19 19 20 22 23 24 24 24 23 23 23 24 25 26 27 28 28 29 29 29 28 29 30 30 29 29 30 33 36 39 41 42 42 42 42 43 44 44 46 47 48 48 49 49 49 50 51 50 49 47 45 44 43 42 42 41 40 40 42
10 9 7 4 5 7 7 10 15 17 18 23 27 28 27 28 28 28 27 26 24 23 22 21 20 19 18 19 21 23 25 25 25 24 25 24 24 25 26 27 28 28 28 29 28 28 28 28 29 29 28 29 30 32 35 39 41 41 41 40 40 39 41 42 43 44 45 46 47 47 47 48 48 48 47 45 43 42 41 40 39 39 39 39 38 38
12 9 7 5 5 6 6 8 11 10 8 16 24 26 25 25 25 25 25 23 22 22 22 19 19 19 19 21 23 24 26 27 26 25 25 25 25 26 27 28 28 29 29 28 28 27 27 27 28 28 29 30 32 35 38 41 41 40 38 37 37 37 39 40 42 44 44 44 45 45 45 47 46 45 43 43 43 43 43 41 39 37 37 38 37 36
15 12 10 8 7 8 10 14 18 16 13 18 24 26 25 23 21 21 21 20 21 22 22 21 20 21 23 25 26 26 27 27 26 26 25 25 26 27 27 28 28 28 28 28 27 27 27 26 27 28 30 32 34 37 40 42 40 37 36 35 34 35 36 38 40 42 43 43 43 43 43 44 44 42 41 42 43 44 45 45 43 40 38 37 37 36
Wind_Direction
173 167 193 189 215 232 235 232 236 239 242 259 270 273 280 284 284 278 281 294 25 65 263 269 287 286 285 285 276 274 277 286 286 283 305 53 74 74 70 65 63 60 58 59 58 56 55 54 54 55 58 59 59 60 62 65 66 65 69 72 63 49 47 52 33 1 355 353 339 325 311 297 285 274 267 261 257 254 252 252 252 254 256 258 259 259
175 191 219 204 220 235 243 252 260 269 269 275 281 283 286 282 279 280 285 290 82 120 272 300 301 291 293 283 272 273 277 288 294 346 67 75 73 68 69 68 66 66 66 66 63 60 60 60 61 59 59 58 57 56 55 58 60 62 70 74 74 71 66 80 90 55 13 0 347 337 325 317 305 290 285 279 273 266 260 257 257 260 262 264 265 265
207 224 229 224 233 240 250 263 268 276 284 288 290 293 285 265 273 280 277 280 96 134 274 313 300 291 291 282 279 279 273 354 68 79 80 79 74 67 65 63 63 66 63 62 61 58 57 59 61 61 59 59 58 57 55 55 54 53 52 51 52 58 55 60 91 119 127 290 285 290 288 297 299 291 293 297 295 290 282 276 273 273 274 273 273 271
213 215 225 226 236 245 252 259 264 268 261 255 254 262 267 251 260 271 250 192 92 197 245 286 288 286 284 278 285 279 259 91 85 87 84 83 81 75 71 66 60 57 57 62 60 56 57 58 60 60 60 59 58 57 55 53 51 49 46 43 41 39 34 28 42 81 79 7 355 351 319 306 304 302 310 313 309 304 299 296 293 292 290 288 285 282
235 249 243 224 228 242 253 260 259 264 263 246 229 222 242 244 244 256 291 349 348 287 258 286 294 270 266 274 298 287 161 100 92 92 87 86 86 81 76 69 60 54 56 61 61 58 59 59 60 60 61 60 59 57 55 53 51 49 47 45 43 42 38 32 32 42 48 43 41 33 26 22 8 1 358 350 341 331 323 319 318 315 312 309 305 298
247 261 257 225 221 231 243 257 245 234 261 263 238 225 235 245 258 280 334 354 346 308 286 66 332 262 257 291 301 291 151 105 96 98 95 90 86 80 74 66 61 60 61 64 63 61 61 61 62 63 63 62 61 60 59 58 56 52 50 48 46 46 44 40 37 33 25 27 39 42 45 45 37 39 30 5 346 334 328 329 331 330 328 326 322 317
233 214 195 204 222 213 220 253 246 223 242 255 246 272 277 302 321 306 328 327 212 275 249 123 205 256 273 279 267 265 228 119 104 102 100 95 89 85 80 71 62 61 67 71 68 64 63 62 62 64 64 64 64 64 63 61 59 56 53 51 49 48 48 46 45 42 35 30 29 29 35 41 39 48 48 8 339 327 326 329 334 336 334 334 333 328
205 175 90 79 212 205 216 247 236 195 201 239 242 337 22 51 322 316 156 219 225 277 267 207 208 256 271 250 240 255 240 140 120 111 100 97 95 91 87 80 70 63 66 72 72 69 66 64 64 65 65 66 66 65 63 61 59 57 55 53 52 51 50 49 49 48 46 43 40 36 31 27 22 17 12 2 344 335 336 337 339 343 342 342 343 341
168 162 160 169 184 208 210 231 219 180 184 217 209 82 62 81 74 135 181 226 245 295 269 213 198 244 270 242 227 244 232 152 132 132 114 112 108 102 99 95 87 77 72 72 73 72 71 68 67 67 67 67 66 64 62 60 59 58 55 53 52 51 50 50 49 49 49 49 48 47 44 40 35 27 16 9 359 350 349 345 343 346 348 349 349 349
43 135 196 180 176 207 188 94 7 172 178 194 183 93 97 181 209 196 201 213 226 259 246 207 184 209 273 260 224 232 216 145 131 132 114 115 114 108 106 103 97 91 85 79 77 76 75 73 71 71 70 68 66 64 62 59 57 55 52 49 48 49 48 47 46 46 47 47 47 47 47 46 44 41 36 29 22 14 7 358 349 348 351 352 351 351
129 95 1 243 212 191 116 86 14 56 132 155 129 1 268 240 221 200 188 165 185 260 244 212 193 193 271 283 227 218 168 145 144 145 130 121 118 115 111 105 97 93 91 86 83 80 78 77 74 72 70 68 66 62 56 53 50 49 48 44 43 44 43 42 41 40 41 41 41 42 42 43 42 41 40 37 33 28 21 12 359 351 352 352 350 348
190 152 265 232 218 163 106 99 9 42 88 119 103 307 292 275 204 168 133 130 187 256 260 234 202 193 216 278 318 41 91 146 154 157 151 134 121 118 114 110 104 96 94 91 86 82 78 74 71 69 67 63 58 52 48 46 45 44 43 39 38 38 37 36 36 34 35 34 35 36 35 36 37 36 36 35 33 30 26 21 11 3 359 356 350 344
210 214 198 181 209 178 138 103 6 13 65 133 177 205 263 309 223 195 182 160 210 240 274 352 64 189 216 270 314 44 53 82 106 118 125 119 113 111 109 109 107 100 92 89 85 81 76 72 69 67 61 53 47 44 43 43 42 41 40 38 36 36 36 34 32 30 30 30 30 30 30 31 32 31 32 32 30 29 26 23 19 15 11 6 359 347
282 265 179 147 265 190 175 157 179 270 163 168 186 174 177 224 259 245 230 226 237 238 292 15 27 13 245 291 328 71 63 55 79 100 111 113 111 108 105 103 100 94 87 83 82 79 75 72 67 59 51 45 42 41 40 39 39 38 38 37 36 37 36 33 32 30 29 29 29 28 27 27 27 27 28 28 27 26 25 23 21 19 17 14 8 360
248 298 189 171 140 176 186 204 210 126 161 195 202 162 173 195 214 239 247 244 250 276 311 6 31 257 206 331 50 86 86 76 84 96 103 105 107 105 102 96 89 86 82 78 76 73 72 67 59 51 46 43 41 40 38 36 35 33 33 34 34 35 34 32 31 30 29 30 30 28 27 26 25 24 23 23 22 21 21 20 19 17 17 16 14 8
225 255 179 138 146 161 185 246 334 66 139 228 214 108 199 210 195 244 263 246 242 299 283 240 226 249 187 94 93 93 90 88 91 97 98 98 101 100 96 92 90 88 83 78 72 70 67 61 55 50 48 45 43 41 37 35 34 32 32 31 31 31 30 29 28 27 27 28 27 26 25 24 23 20 18 17 16 15 14 13 12 12 11 11 11 9
224 230 120 147 179 156 174 212 49 94 108 22 62 128 232 219 135 248 281 273 246 260 259 238 249 274 8 80 114 106 96 98 99 99 100 101 101 97 94 96 96 89 82 80 77 73 68 61 56 53 49 46 42 39 37 36 34 33 32 30 29 28 27 25 25 24 24 22 21 21 20 19 18 16 15 14 12 10 8 6 6 5 3 2 2 2
148 241 232 199 197 170 149 58 345 232 137 96 187 247 295 344 42 157 252 273 256 258 255 249 268 278 275 256 133 121 113 110 108 104 105 106 105 103 102 103 99 93 92 91 85 77 67 59 54 51 50 47 43 39 37 35 32 31 30 28 27 25 25 25 23 22 20 18 17 15 14 14 12 12 12 11 9 6 3 1 1 0 358 357 356 355
89 284 258 187 146 182 163 71 318 253 139 121 186 301 54 339 300 244 215 229 244 258 257 243 261 265 246 238 151 159 145 126 125 125 119 118 118 115 112 110 108 108 107 98 85 73 64 59 55 53 52 49 48 45 41 37 32 28 25 23 23 23 23 23 21 20 18 17 16 15 13 11 9 8 7 6 5 2 359 359 358 357 356 355 353 352
74 178 266 98 97 94 63 64 141 286 352 55 41 356 86 172 215 225 256 241 233 257 265 249 255 260 253 302 347 135 139 139 142 137 125 119 121 123 125 126 124 121 115 103 93 86 81 75 65 62 61 59 58 51 47 42 32 28 25 21 19 18 16 14 12 12 11 10 10 10 10 9 7 6 4 2 1 358 358 357 355 354 353 352 351 350
56 218 244 326 62 78 70 197 187 210 252 75 48 290 243 194 209 241 273 238 218 251 264 257 257 252 249 352 24 95 119 138 139 129 121 120 125 140 152 155 159 154 146 139 132 114 79 53 41 42 42 44 47 43 41 36 28 25 22 18 17 15 11 9 7 6 5 4 4 3 2 1 1 1 0 359 357 356 355 354 352 351 350 348 347 346
277 233 243 274 276 231 226 222 214 246 281 255 179 208 215 212 204 260 260 228 204 229 239 252 260 248 217 341 38 88 95 104 114 116 125 140 154 168 172 174 180 180 181 176 169 149 35 34 33 36 35 33 30 26 24 22 19 18 15 13 11 8 7 6 4 3 2 2 1 359 358 356 354 354 353 353 352 352 351 350 349 347 345 343 342 341
83 87 289 269 260 262 270 277 285 296 299 291 270 230 226 232 199 237 256 256 257 252 245 251 259 253 224 311 51 94 105 115 128 137 149 165 177 181 183 191 196 199 205 207 228 289 336 34 47 41 39 31 22 19 19 16 13 12 12 9 5 2 1 359 357 356 355 355 356 354 352 351 350 348 347 346 346 346 345 344 343 342 341 340 338 337
59 90 245 267 265 272 278 278 279 282 277 269 270 262 267 286 287 250 228 196 284 269 266 261 258 263 268 291 75 111 121 127 145 158 162 170 178 184 197 209 211 212 212 217 237 256 261 255 326 32 31 26 22 19 16 11 6 4 4 3 360 357 355 352 350 349 348 348 348 347 345 344 343 342 342 340 340 340 339 337 336 336 335 334 334 333
343 91 125 277 280 288 286 283 295 347 12 344 304 340 358 342 336 342 270 168 211 236 245 258 261 261 249 116 118 137 138 147 169 175 171 174 182 198 213 217 214 214 215 220 226 227 225 225 200 39 24 17 14 9 6 1 355 353 355 355 353 350 348 346 344 343 341 341 340 339 338 337 337 336 336 335 334 333 332 331 330 329 328 328 327 327
260 208 125 188 238 253 267 271 258 44 20 328 302 324 332 317 309 319 313 277 266 249 248 263 267 273 294 247 222 196 187 187 185 188 192 197 203 213 218 218 217 218 223 228 222 214 209 200 192 204 270 313 321 329 336 337 337 339 342 344 343 341 340 338 336 336 335 334 334 334 333 331 330 330 330 329 328 327 327 326 324 324 323 322 321 320
104 267 213 211 231 245 258 274 290 317 306 282 293 297 290 284 282 283 268 257 268 291 280 262 265 278 285 277 268 220 195 201 200 205 215 222 225 224 219 219 222 223 226 226 216 210 213 217 228 248 269 286 300 309 316 322 328 331 330 331 332 332 331 330 330 332 332 331 331 331 329 328 326 326 325 324 323 322 321 321 320 319 319 318 317 316
124 249 239 233 240 252 262 276 291 299 287 273 279 278 275 276 269 254 250 255 275 296 269 262 270 278 274 277 289 293 248 225 217 229 240 243 238 228 219 219 222 224 222 217 215 222 230 241 258 275 286 294 300 308 316 323 328 330 331 333 332 329 329 328 328 329 329 328 327 326 325 324 323 322 322 320 319 319 318 318 318 317 317 316 315 314
118 243 258 260 258 265 269 271 277 281 280 276 272 271 274 273 264 256 258 261 256 254 261 268 271 270 271 277 286 294 293 288 285 282 277 262 238 221 214 211 210 212 214 214 223 235 241 251 263 269 275 282 286 295 303 309 319 325 328 331 330 328 328 328 326 327 327 325 324 324 322 321 321 320 319 319 318 317 317 316 316 315 314 314 313 312
87 235 254 255 262 270 267 266 273 275 276 274 268 266 267 265 265 268 270 267 261 259 266 272 270 270 275 280 282 289 296 306 315 313 303 266 204 197 198 199 204 213 217 218 226 237 242 249 256 259 264 268 270 279 288 298 311 318 320 324 326 324 323 321 321 323 324 324 324 324 323 322 321 320 319 318 318 317 316 315 314 312 311 311 310 309
344 253 283 317 288 276 270 273 283 283 279 280 277 271 265 264 269 271 268 268 268 268 268 267 270 274 274 280 296 306 313 339 12 19 26 74 154 189 195 205 218 225 225 225 231 238 240 244 252 257 259 261 265 272 282 296 305 308 311 317 318 316 313 311 314 318 320 321 321 321 321 321 320 320 319 318 317 316 314 313 311 310 308 307 306 305
323 274 320 333 274 265 271 276 283 320 318 284 270 265 261 262 265 260 259 262 260 265 271 271 271 270 264 333 43 52 18 18 34 44 28 33 188 193 210 226 233 235 234 237 240 242 244 249 256 260 261 264 269 275 284 294 298 299 305 310 309 307 304 304 309 314 316 317 317 317 318 318 318 319 318 318 317 315 313 311 310 309 307 306 304 302
197 206 238 247 256 264 266 264 273 24 315 270 258 254 252 253 255 256 257 255 252 257 265 266 260 239 204 127 12 6 73 67 48 32 17 320 208 204 240 251 255 254 249 250 252 253 256 261 264 266 269 271 274 280 287 291 294 300 306 307 303 299 297 301 307 313 315 316 316 316 317 317 317 317 317 316 315 313 312 311 310 309 308 307 305 303
199 194 206 229 247 260 267 285 4 259 257 261 238 219 239 248 252 258 257 251 252 254 258 266 258 193 183 194 188 145 103 88 33 356 337 307 282 276 275 268 262 260 258 258 259 261 264 268 271 273 276 278 279 281 284 288 297 305 307 303 297 293 294 301 309 313 316 317 318 318 318 316 315 314 314 314 313 312 310 309 308 307 306 305 304 303
202 203 216 228 239 259 285 321 287 243 246 263 169 210 247 255 248 256 260 257 260 264 271 279 272 208 178 164 137 120 103 64 342 307 296 288 274 270 273 270 263 260 261 264 265 265 266 269 273 278 281 283 281 279 283 292 301 306 304 297 294 295 299 306 312 315 317 318 318 318 317 316 314 313 313 312 311 309 307 305 305 304 304 303 302 302
205 207 215 221 235 258 251 230 241 249 262 279 264 257 280 263 246 262 270 261 251 252 262 269 246 166 147 131 112 107 115 324 308 296 298 295 276 266 268 268 266 264 267 273 274 272 272 273 276 280 283 283 282 283 290 298 301 301 298 296 299 302 307 311 314 317 317 317 317 317 316 315 313 312 312 310 307 305 304 303 303 303 304 303 302 302
206 207 218 226 230 229 225 232 252 288 295 273 264 269 240 184 211 226 260 262 248 251 244 174 154 148 145 138 120 120 167 335 313 300 310 314 287 270 267 266 266 268 273 278 278 277 280 281 279 280 281 281 284 289 295 298 299 298 299 301 305 308 311 314 315 316 317 317 317 316 315 314 312 310 309 307 305 304 304 304 304 305 304 303 302 301
206 207 207 225 239 227 237 253 258 273 274 252 242 269 76 88 89 102 332 291 279 288 283 198 177 163 150 154 162 164 157 52 316 300 315 334 311 284 273 268 269 272 276 278 277 277 278 277 277 277 277 279 285 292 296 298 299 301 304 306 309 311 313 314 316 317 317 317 317 316 314 312 310 309 308 307 306 306 307 307 306 305 304 302 300 300
200 211 199 217 245 235 241 255 248 258 267 207 195 240 116 91 55 30 350 298 297 325 309 181 164 160 160 174 180 161 140 142 259 279 297 317 320 310 294 283 277 273 274 275 275 276 276 275 275 274 275 281 290 296 299 300 303 305 307 308 310 311 314 316 317 317 317 316 316 314 313 312 311 310 310 309 310 309 309 308 307 306 304 302 300 299
180 202 193 215 235 232 236 246 242 254 261 188 185 216 206 91 56 28 313 273 199 344 224 172 172 182 184 189 182 161 166 210 243 280 289 287 294 296 288 282 278 275 278 279 276 275 275 275 276 276 280 288 294 299 301 303 304 306 307 308 310 312 315 316 316 316 315 315 314 314 313 313 313 313 313 312 312 311 310 309 308 306 305 303 302 300
170 205 214 221 229 232 239 248 253 254 241 203 194 196 176 90 55 291 266 251 177 214 218 195 203 208 201 199 194 199 227 245 266 287 288 281 282 286 284 281 277 275 278 277 274 273 272 273 277 281 287 294 298 300 302 303 304 305 306 309 312 314 315 315 315 315 315 314 314 314 314 314 314 315 314 313 312 311 310 308 307 306 305 304 303 301
146 143 243 229 226 232 234 238 256 264 228 159 173 188 165 125 250 240 238 184 208 238 228 211 220 222 215 218 224 236 255 271 282 287 285 281 282 284 283 282 279 275 272 269 270 272 274 277 282 286 291 296 299 300 301 302 304 306 308 311 313 314 314 314 314 314 314 314 315 315 315 316 316 315 314 313 312 311 309 309 308 307 307 306 305 303
177 175 235 227 210 215 233 237 248 268 226 131 126 149 170 181 222 232 227 263 266 260 240 220 223 229 231 235 243 254 269 281 287 288 287 286 285 285 286 286 281 273 267 264 266 272 276 281 285 289 294 297 298 300 301 302 304 307 310 312 314 314 313 313 313 314 314 315 315 316 316 316 316 315 314 314 313 312 310 310 310 309 309 308 307 305
211 181 209 227 189 178 215 227 198 171 163 162 168 207 230 230 245 258 264 267 262 254 241 228 231 242 247 248 252 261 273 281 283 285 287 286 286 289 291 286 276 266 264 265 269 273 278 283 288 292 295 297 298 300 301 303 306 309 311 313 313 313 313 313 313 314 315 316 316 316 317 317 316 316 315 315 314 313 312 313 313 312 311 309 308 306
216 202 209 232 224 186 206 238 242 296 284 248 210 218 234 244 257 267 269 269 268 266 257 247 247 255 258 258 262 271 279 281 282 284 285 283 286 290 289 280 269 263 265 267 271 275 281 287 291 294 295 297 299 300 301 305 309 310 312 313 313 313 313 313 314 316 317 317 317 318 318 317 317 317 317 317 318 318 317 317 315 312 310 308 306 304
228 230 226 232 253 257 254 257 268 280 275 265 251 241 243 253 265 271 271 268 268 270 268 263 263 266 267 268 272 277 280 281 284 286 285 283 285 286 281 273 266 265 266 268 272 279 286 291 293 294 296 298 298 299 303 307 310 310 311 312 312 313 313 314 316 318 318 318 318 319 319 318 318 320 321 322 321 319 317 315 312 309 308 306 304 302
242 245 242 236 253 263 257 245 245 254 260 263 264 260 258 263 268 270 271 271 270 271 269 266 267 269 269 270 272 276 280 283 286 286 285 283 282 278 273 268 266 267 269 271 278 285 290 291 292 294 296 297 298 301 305 308 309 310 312 313 313 313 314 316 318 318 318 318 319 319 320 321 323 324 323 321 318 316 313 312 310 308 306 305 304 302
242 246 241 229 237 241 235 239 247 253 257 261 263 262 262 264 264 264 267 271 274 274 272 269 267 267 270 275 278 278 280 282 284 283 281 278 275 272 269 268 268 269 271 276 283 289 290 291 293 294 295 297 300 304 307 308 310 312 313 313 313 314 316 318 318 317 317 319 320 321 323 325 325 323 320 317 316 315 313 313 312 310 308 307 306 303
240 247 241 220 232 245 241 238 245 256 261 260 260 261 263 264 265 264 266 268 272 276 277 273 267 264 270 280 284 281 279 281 283 281 276 273 271 269 268 269 270 272 277 283 287 289 291 292 294 294 296 299 303 306 308 309 311 313 314 313 313 315 317 317 316 316 318 321 323 325 327 326 323 320 318 318 318 318 317 317 317 313 309 307 305 301
237 245 248 244 245 248 238 229 234 244 256 256 257 261 264 264 263 262 263 265 268 272 275 272 266 265 273 282 285 281 278 279 281 279 274 272 270 269 269 271 273 277 282 285 288 289 292 294 294 296 299 302 305 307 309 309 312 314 314 313 315 317 317 316 316 318 321 323 325 328 328 325 322 320 320 321 322 322 320 320 319 314 308 306 303 298
234 238 240 240 244 248 248 242 237 235 242 253 259 264 267 265 261 258 260 266 271 272 271 267 266 271 279 284 285 282 279 279 280 278 275 272 271 271 273 275 278 283 286 287 289 291 293 294 296 298 301 304 307 309 309 310 313 315 314 313 316 316 316 317 319 320 323 325 328 329 327 323 322 323 324 325 326 323 320 319 318 317 314 311 306 301